Back to catalog

STARLINK-34135

AliveCommunicationsVLEO
NORAD 63964·PAYLOAD·🇺🇸 United States

Launched May 13, 2025 from Cape Canaveral Space Force Station

Loading…

Next Passes (next 24 hours)

TLE

FreshSource: CelesTrak SupGP

Epoch: Sep 14, 2026, 14:14 UTC

1 63964C 25099N   26257.59354167 -.00001222  00000+0 -44264-4 0  2574
2 63964  43.0002 189.3029 0001546 262.9008 241.8475 15.27571537    19

Track STARLINK-34135 in real time with AllMySat

Download on the App Store